Weather History for Birmingham, United Kingdom

Change the Weather History Date:

Sunday, October 13, 2013

  Actual Average Record
Temperature  
Mean Temperature 50 °F -  
Max Temperature 51 °F 54 °F 68 °F (2001)
Min Temperature 48 °F 40 °F 33 °F (1999)
Degree Days  
Heating Degree Days 16    
Moisture  
Dew Point 49 °F    
Average Humidity 94    
Maximum Humidity 100    
Minimum Humidity 87    
Precipitation  
Precipitation 0.00 in 0.07 in - ()
Sea Level Pressure  
Sea Level Pressure 29.89 in    
Wind  
Wind Speed 10 mph ()    
Max Wind Speed 15 mph    
Max Gust Speed -    
Visibility 5.2 miles    
Events Rain    
Averages and records for this station are not official NWS values.
T = Trace of Precipitation, MM = Missing Value Source: Averaged Metar Reports

Daily Weather History Graph

Daily Weather History Graph

Search for Another Location

Airport:

Trip Planner

Search our weather history database for the weather conditions in past years. The results will help you decide how hot, cold, wet, or windy it might be!

Date:

Astronomy

Oct. 13, 2013 Rise Set
Actual Time 7:29 AM BST 6:16 PM BST
Civil Twilight 6:54 AM BST 6:50 PM BST
Nautical Twilight 6:15 AM BST 7:30 PM BST
Astronomical Twilight 5:35 AM BST 8:09 PM BST
Moon 3:36 PM BST (10/13) 12:39 AM BST (10/13)
Length of Visible Light 11h 56m
Length of Day
10h 47m
Waxing Gibbous, 67% of the Moon is Illuminated
Oct 13
Waxing Gibbous
Oct 19
Full
Oct 27
Last Quarter
Nov 3
New
Nov 10
First Quarter

Hourly Weather History & Observations

Time (BST) Temp. Dew Point Humidity Pressure Visibility Wind Dir Wind Speed Gust Speed Precip Events Conditions
12:20 AM 51.8 °F 50.0 °F 94% 30.04 in 3.1 mi North 10.4 mph - N/A   Overcast
12:50 AM 51.8 °F 50.0 °F 94% 30.04 in - North 9.2 mph - N/A Rain Light Rain
1:20 AM 51.8 °F 50.0 °F 94% 30.04 in 3.1 mi North 9.2 mph - N/A Rain Light Rain
1:50 AM 51.8 °F 50.0 °F 94% 30.01 in - NNW 9.2 mph - N/A   Drizzle
2:20 AM 51.8 °F 50.0 °F 94% 30.01 in - North 10.4 mph - N/A Rain Rain
2:50 AM 51.8 °F 50.0 °F 94% 30.01 in - North 11.5 mph - N/A   Light Drizzle
3:20 AM 51.8 °F 50.0 °F 94% 29.98 in 3.1 mi North 11.5 mph - N/A   Overcast
3:50 AM 51.8 °F 50.0 °F 94% 29.98 in - North 10.4 mph - N/A   Overcast
4:20 AM 51.8 °F 50.0 °F 94% 29.98 in - North 10.4 mph - N/A   Overcast
4:50 AM 51.8 °F 50.0 °F 94% 29.95 in - NNW 10.4 mph - N/A Rain Light Rain
5:20 AM 51.8 °F 50.0 °F 94% 29.95 in 3.7 mi NNW 11.5 mph - N/A   Overcast
5:50 AM 51.8 °F 50.0 °F 94% 29.95 in 5.6 mi NNW 11.5 mph - N/A   Overcast
6:20 AM 51.8 °F 50.0 °F 94% 29.92 in 6.2 mi NNW 10.4 mph - N/A   Overcast
6:50 AM 51.8 °F 50.0 °F 94% 29.92 in 5.6 mi North 9.2 mph - N/A   Mostly Cloudy
7:20 AM 51.8 °F 50.0 °F 94% 29.92 in 6.2 mi NNW 11.5 mph - N/A   Mostly Cloudy
7:50 AM 51.8 °F 50.0 °F 94% 29.92 in 6.2 mi NNW 11.5 mph - N/A   Mostly Cloudy
8:20 AM 51.8 °F 50.0 °F 94% 29.92 in 5.6 mi NNW 10.4 mph - N/A Rain Light Rain
8:50 AM 50.0 °F 50.0 °F 100% 29.92 in 6.2 mi NNW 11.5 mph - N/A Rain Light Rain
9:20 AM 50.0 °F 50.0 °F 100% 29.92 in 4.3 mi NNW 10.4 mph - N/A Rain Light Rain
9:50 AM 50.0 °F 50.0 °F 100% 29.92 in 3.7 mi NW 12.7 mph - N/A Rain Light Rain
10:20 AM 50.0 °F 48.2 °F 94% 29.89 in 3.7 mi NW 12.7 mph - N/A Rain Light Rain
10:50 AM 50.0 °F 48.2 °F 94% 29.89 in - NNW 12.7 mph - N/A Rain Light Rain
11:20 AM 50.0 °F 48.2 °F 94% 29.89 in 3.7 mi NW 12.7 mph - N/A Rain Light Rain
11:50 AM 50.0 °F 48.2 °F 94% 29.89 in 3.7 mi NW 13.8 mph - N/A Rain Rain
12:20 PM 50.0 °F 48.2 °F 94% 29.86 in 3.7 mi NW 13.8 mph - N/A Rain Rain
12:50 PM 50.0 °F 48.2 °F 94% 29.86 in - NW 15.0 mph - N/A Rain Rain
1:20 PM 50.0 °F 48.2 °F 94% 29.86 in - NW 15.0 mph - N/A Rain Light Rain
1:50 PM 50.0 °F 48.2 °F 94% 29.86 in 3.1 mi NW 13.8 mph - N/A Rain Light Rain
2:20 PM 50.0 °F 48.2 °F 94% 29.86 in - NNW 13.8 mph - N/A Rain Rain
2:50 PM 50.0 °F 50.0 °F 100% 29.83 in 3.1 mi NNW 11.5 mph - N/A Rain Light Rain
3:20 PM 50.0 °F 50.0 °F 100% 29.83 in 3.7 mi NNW 11.5 mph - N/A   Mostly Cloudy
3:50 PM 51.8 °F 50.0 °F 94% 29.83 in 6.2 mi NNW 13.8 mph - N/A   Mostly Cloudy
4:20 PM 50.0 °F 50.0 °F 100% 29.83 in 6.2 mi NNW 10.4 mph - N/A   Mostly Cloudy
4:50 PM 50.0 °F 48.2 °F 94% 29.83 in 6.2 mi NW 11.5 mph - N/A   Mostly Cloudy
5:20 PM 50.0 °F 48.2 °F 94% 29.83 in 5.6 mi NW 9.2 mph - N/A Rain Light Rain
5:50 PM 50.0 °F 48.2 °F 94% 29.83 in 6.2 mi NNW 8.1 mph - N/A   Mostly Cloudy
6:20 PM 50.0 °F 48.2 °F 94% 29.83 in 6.2 mi NNW 8.1 mph - N/A   Mostly Cloudy
6:50 PM 48.2 °F 46.4 °F 93% 29.83 in 6.2 mi NW 8.1 mph - N/A   Partly Cloudy
7:20 PM 48.2 °F 46.4 °F 93% 29.83 in 6.2 mi WNW 8.1 mph - N/A   Partly Cloudy
7:50 PM 50.0 °F 48.2 °F 94% 29.83 in 6.2 mi NNW 10.4 mph - N/A   Partly Cloudy
8:20 PM 48.2 °F 46.4 °F 93% 29.83 in - NNW 9.2 mph - N/A   Clear
8:50 PM 50.0 °F 46.4 °F 87% 29.83 in 6.2 mi NNW 10.4 mph - N/A   Partly Cloudy
9:20 PM 48.2 °F 44.6 °F 87% 29.83 in 6.2 mi NNW 11.5 mph - N/A   Mostly Cloudy
9:50 PM 48.2 °F 46.4 °F 93% 29.83 in 6.2 mi NNW 10.4 mph - N/A Rain Light Rain Showers
10:20 PM 48.2 °F 46.4 °F 93% 29.80 in 6.2 mi NW 11.5 mph - N/A Rain Light Rain
10:50 PM 48.2 °F 46.4 °F 93% 29.80 in 6.2 mi WNW 10.4 mph - N/A Rain Light Rain
11:20 PM 48.2 °F 46.4 °F 93% 29.80 in 6.2 mi WNW 12.7 mph - N/A   Mostly Cloudy
11:50 PM 48.2 °F 44.6 °F 87% 29.80 in 6.2 mi WNW 15.0 mph - N/A Rain Light Rain